Flag for China Weather past 2 weeks in Chongqing, Chongqing Municipality, China

Now
82 °F

Clear.


Feels Like: 84 °F
Forecast: 75 / 100 °F
Wind: 8 mph from North

Location: Chongqing Airport

Current Time: Aug 20, 2014 at 11:06:21 PM

Latest Report: Aug 20, 2014 at 10:00 PM


Visibility: 10 mi

Pressure: 29.80 "Hg

Humidity: 55%

Dew point: 64 °F

Location of ChongqingLocation

Historic Weather in Chongqing — Graph

°F

Chongqing temperature yesterday

Maximum temperature yesterday: 91 °F (at 4:00 PM)
Minimum temperature yesterday: 73 °F (at 5:00 AM)
Average temperature yesterday: 81 °F

Past Weeks' High & Low Weather Summary

 TemperatureHumidityPressure
High104 °F (Aug 6, 4:00 PM)94% (Aug 8, 3:00 AM)29.95 "Hg (Aug 8, 3:00 AM)
Low68 °F (Aug 13, 4:00 AM)27% (Aug 6, 6:00 PM)29.45 "Hg (Aug 7, 5:00 PM)
Average82 °F69%29.71 "Hg
* Reported Aug 5 9:00 PM — Aug 20 9:00 PM, Chongqing, Weather by CustomWeather, © 2014

Note: Actual official high and low records may vary slightly from our data, if they occured in-between our weather recording intervals... More about our weather records

Advertising

Chongqing weather history for previous 24 hours

 ConditionsComfort  
Time TempWeatherWind HumidityBarometerVisibility
9:00 PM
Aug 20
84 °FClear.6 mph48%29.80 "Hg10 mi
8:00 PM88 °FClear.3 mph40%29.77 "Hg10 mi
7:00 PM90 °FSunny.3 mph38%29.77 "Hg10 mi
6:00 PM91 °FPassing clouds.3 mph36%29.74 "HgN/A
5:00 PM93 °FPassing clouds.3 mph34%29.77 "HgN/A
4:00 PM93 °FScattered clouds.3 mph34%29.77 "HgN/A
3:00 PM93 °FPassing clouds.3 mph34%29.80 "HgN/A
2:00 PM91 °FScattered clouds.6 mph38%29.83 "HgN/A
1:00 PM91 °FSunny.3 mph38%29.86 "Hg10 mi
12:00 PM88 °FPassing clouds.6 mph46%29.89 "HgN/A
11:00 AM86 °FPassing clouds.3 mph52%29.89 "HgN/A
10:00 AM82 °FPassing clouds.3 mph62%29.92 "HgN/A
9:00 AM81 °FPassing clouds.3 mph58%29.92 "HgN/A
8:00 AM77 °FClear.1 mph74%29.89 "Hg5 mi
7:00 AM75 °FSunny.1 mph78%29.89 "Hg10 mi
6:00 AM75 °FClear.1 mph78%29.86 "Hg10 mi
5:00 AM77 °FClear.No wind74%29.86 "Hg10 mi
4:00 AM75 °FClear.3 mph78%29.86 "Hg10 mi
3:00 AM75 °FClear.3 mph78%29.86 "Hg10 mi
2:00 AM77 °FClear.3 mph74%29.89 "Hg10 mi
1:00 AM79 °FClear.6 mph70%29.89 "Hg10 mi
12:00 AM79 °FClear.6 mph70%29.89 "Hg10 mi
11:00 PM
Aug 19
81 °FClear.3 mph66%29.89 "Hg10 mi
Weather by CustomWeather, © 2014

See weather overviewHow to use our weather pages